{"data":{"norad_id":68250,"intl_designator":"2026-054U","name":"STARLINK-37087","alt_names":[],"object_type":"PAYLOAD","status":"ACTIVE","operator":null,"country":"US","launch_date":"2026-03-17","launch_site_code":"AFETR","launch_vehicle":null,"mission":null,"orbit_class":"UNKNOWN","rcs_meters":null,"size_class":null,"mass_kg":null,"dimensions":null,"purposes":["comms"],"wikipedia_slug":null,"has_3d_model":false,"image_url":null,"decayed_at":null,"tle_current":{"epoch":"2026-05-24T20:10:54.588576Z","epoch_age_seconds":85624,"freshness":"FRESH","line1":"1 68250U 26054U   26144.84090959  .00038913  00000+0  89892-3 0  9991","line2":"2 68250  53.1590 300.8629 0000923  94.7875 265.3236 15.42166578 10685","mean_motion":15.42166578,"eccentricity":9.23e-5,"inclination_deg":53.159,"raan_deg":300.8629,"arg_perigee_deg":94.7875,"mean_anomaly_deg":265.3236,"bstar":0.00089892,"rev_number":1068,"period_min":93.37512695078,"perigee_km":439.08697839822,"apogee_km":440.34555411117,"semimajor_km":6817.8532662547,"source":"CELESTRAK","updated_at":"2026-05-25T13:38:21.886869Z"}}}